Terminal Aerodrome Forecast
Issued by NWS

Home | Current Version | Previous Version | Text Only | Print | Product List | Glossary On
Versions: 1 2 3 4 5 6 7 8 9 10 11 12 13 14 15 16 17 18 19 20 21 22 23 24 25 26 27 28
000
FTUS46 KLOX 290446 AAA
TAFOXR
TAF AMD
KOXR 290446Z 2905/2924 27003KT P6SM BKN007
     FM290600 VRB03KT P6SM SCT006
     FM291000 VRB03KT 3SM BR OVC005
     FM291500 28002KT 4SM BR OVC007
     FM291800 25006KT 6SM BR OVC010
     FM292000 26009KT P6SM BKN012
     FM292200 27010KT P6SM SCT012=

USA.gov is the U.S. government's official web portal to all federal, state and local government web resources and services.